GW4049 Weather Reports


Display with metric or nautical units.
time (UTC)temp
F
wind
direction
speed
MPH
gust
MPH
rain 1hr
in
rain 24hr
in
rain mn
in
humidity
%
barometer
mb
20260902052627 51 208 3.0 3.0 0.00 0.05 0.05 70 1032.1
20260902052123 51 206 3.0 3.0 0.00 0.05 0.05 71 1032.1
20260902051622 52 209 3.0 3.0 0.00 0.05 0.05 69 1032.3
20260902051121 52 213 2.0 2.0 0.00 0.05 0.05 70 1032.3
20260902050616 52 209 3.0 3.0 0.00 0.05 0.05 69 1032.4
20260902050111 52 211 3.0 3.0 0.00 0.05 0.05 70 1032.1
20260902045607 53 208 3.0 3.0 0.00 0.05 0.05 69 1032.3
20260902045103 53 211 3.0 3.0 0.00 0.05 0.05 68 1032.4
20260902044602 53 222 2.0 3.0 0.00 0.05 0.05 69 1032.4
20260902044058 53 205 3.0 3.0 0.00 0.05 0.05 68 1032.4
20260902043548 53 216 2.0 3.0 0.00 0.05 0.05 68 1032.4
20260902043042 53 231 2.0 2.0 0.00 0.05 0.05 67 1032.7
20260902042536 54 224 2.0 2.0 0.00 0.05 0.05 66 1032.5
20260902042031 54 237 1.0 2.0 0.00 0.05 0.05 67 1032.7
20260902041525 54 234 2.0 2.0 0.00 0.05 0.05 67 1032.7
20260902041020 55 252 0.0 1.0 0.00 0.05 0.05 66 1032.7
20260902040514 53 255 0.0 1.0 0.00 0.05 0.05 66 1032.8
20260902040009 53 225 1.0 3.0 0.00 0.05 0.05 68 1032.3
20260902035503 53 215 3.0 3.0 0.00 0.05 0.05 69 1032.3
20260902035002 53 207 2.0 2.0 0.00 0.05 0.05 71 1032.5
20260902034457 53 208 3.0 3.0 0.00 0.05 0.05 71 1032.8
20260902033951 53 206 2.0 3.0 0.00 0.05 0.05 72 1032.5
20260902033450 53 215 2.0 3.0 0.00 0.05 0.05 70 1032.4
20260902032949 53 204 2.0 3.0 0.00 0.05 0.05 70 1032.5
20260902032444 53 212 2.0 3.0 0.00 0.05 0.05 69 1032.5
20260902031938 53 210 3.0 3.0 0.00 0.05 0.05 70 1032.8
20260902031428 53 212 3.0 3.0 0.00 0.05 0.05 68 1032.7
20260902030924 54 230 2.0 2.0 0.00 0.05 0.05 70 1032.4
20260902030419 54 228 2.0 2.0 0.00 0.05 0.05 69 1032.7
20260902025917 55 223 2.0 3.0 0.00 0.05 0.05 68 1032.3
20260902025413 55 216 2.0 3.0 0.00 0.05 0.05 66 1032.5
20260902024908 55 228 2.0 2.0 0.00 0.05 0.05 64 1032.4
20260902024403 55 218 2.0 2.0 0.00 0.05 0.05 66 1032.3
20260902023859 54 218 3.0 3.0 0.00 0.05 0.05 68 1032.1
20260902023354 54 207 3.0 3.0 0.00 0.05 0.05 67 1032.3
20260902022853 54 199 3.0 3.0 0.00 0.05 0.05 67 1032.1
20260902022348 54 210 3.0 3.0 0.00 0.05 0.05 68 1031.9
20260902021844 54 212 2.0 3.0 0.00 0.05 0.05 69 1031.8
20260902021339 54 213 2.0 3.0 0.00 0.05 0.05 68 1031.9
20260902020834 55 217 2.0 2.0 0.00 0.05 0.05 67 1031.8
20260902020331 55 221 2.0 2.0 0.00 0.05 0.05 67 1032.0
20260902015826 55 223 2.0 3.0 0.00 0.05 0.05 67 1031.6
20260902015322 55 212 2.0 3.0 0.00 0.05 0.05 66 1031.8
20260902014817 55 216 2.0 3.0 0.00 0.05 0.05 66 1031.6
20260902014314 55 213 2.0 3.0 0.00 0.05 0.05 67 1031.5
20260902013812 55 208 3.0 3.0 0.00 0.05 0.05 66 1031.8
20260902013308 56 211 3.0 3.0 0.00 0.05 0.05 68 1031.6
20260902012803 56 216 2.0 3.0 0.00 0.05 0.05 67 1031.6
20260902012259 56 220 2.0 2.0 0.00 0.05 0.05 70 1031.6
20260902011754 56 212 2.0 3.0 0.00 0.05 0.05 71 1031.8
20260902011254 57 220 2.0 2.0 0.00 0.05 0.05 67 1031.9
20260902010748 57 224 2.0 2.0 0.00 0.05 0.05 70 1032.0
20260902010244 56 219 2.0 2.0 0.00 0.05 0.05 71 1031.8
20260902005742 56 221 2.0 2.0 0.00 0.05 0.05 72 1032.0
20260902005238 56 224 2.0 3.0 0.00 0.05 0.05 79 1031.8
20260902004737 56 218 2.0 2.0 0.00 0.05 0.05 78 1031.8
20260902004232 55 211 3.0 3.0 0.00 0.05 0.05 78 1031.9
20260902003727 56 233 2.0 2.0 0.00 0.05 0.05 82 1031.9
20260902003223 56 237 1.0 2.0 0.00 0.05 0.05 85 1032.1
20260902002718 57 227 2.0 2.0 0.00 0.05 0.05 86 1031.6
20260902002218 59 228 2.0 2.0 0.00 0.05 0.05 78 1031.8
20260902001713 61 240 1.0 1.0 0.00 0.05 0.05 66 1031.8
20260902001208 63 248 1.0 1.0 0.00 0.05 0.05 56 1031.9
20260902000703 63 254 0.0 0.0 0.00 0.05 0.05 56 1032.0
20260902000158 64 271 0.0 0.0 0.00 0.05 0.05 50 1031.6
20260901235657 64 261 0.0 0.0 0.00 0.05 0.05 52 1031.9
20260901235153 64 250 0.0 2.0 0.00 0.05 0.05 49 1031.8
20260901234652 64 257 0.0 0.0 0.00 0.05 0.05 51 1031.8
20260901234147 64 285 1.0 1.0 0.00 0.05 0.05 50 1031.9
20260901233642 64 275 0.0 1.0 0.00 0.05 0.05 51 1031.9
20260901233138 64 248 0.0 0.0 0.00 0.05 0.05 51 1031.8
20260901232638 64 267 0.0 2.0 0.00 0.05 0.05 53 1031.8
20260901232133 64 253 0.0 1.0 0.00 0.05 0.05 51 1031.6
20260901231630 64 266 1.0 3.0 0.00 0.05 0.05 57 1031.8
20260901231126 64 307 3.0 3.0 0.00 0.05 0.05 49 1031.9
20260901230621 64 338 0.0 4.0 0.00 0.05 0.05 49 1031.8
20260901230121 64 67 2.0 8.0 0.00 0.05 0.05 49 1031.8
20260901225616 65 25 3.0 6.0 0.00 0.05 0.05 48 1031.5
20260901225116 66 242 0.0 3.0 0.00 0.05 0.05 46 1031.5
20260901224612 67 263 0.0 4.0 0.00 0.05 0.05 41 1031.8
20260901224108 67 256 1.0 2.0 0.00 0.05 0.05 42 1031.8
20260901223603 66 324 1.0 3.0 0.00 0.05 0.05 42 1031.8
20260901223058 64 331 1.0 3.0 0.00 0.05 0.05 46 1031.6
20260901222554 64 276 1.0 3.0 0.00 0.05 0.05 46 1031.5
20260901222050 64 49 2.0 4.0 0.00 0.05 0.05 47 1031.6
20260901221546 64 267 1.0 3.0 0.00 0.05 0.05 45 1031.9
20260901221041 64 272 0.0 3.0 0.00 0.05 0.05 46 1031.6
20260901220541 64 332 0.0 3.0 0.00 0.05 0.05 46 1032.1
20260901220040 64 351 2.0 8.0 0.00 0.05 0.05 46 1031.8
20260901215538 64 10 4.0 7.0 0.00 0.05 0.05 44 1031.9
20260901215032 65 302 5.0 8.0 0.00 0.05 0.05 44 1032.0
20260901214531 65 283 4.0 8.0 0.00 0.05 0.05 44 1032.3
20260901214026 64 348 4.0 4.0 0.00 0.05 0.05 45 1032.0
20260901213525 65 10 2.0 3.0 0.00 0.05 0.05 44 1032.1
20260901213020 65 307 3.0 7.0 0.00 0.05 0.05 44 1032.0
20260901212520 65 318 2.0 6.0 0.00 0.05 0.05 46 1032.3
20260901212017 66 260 1.0 1.0 0.00 0.05 0.05 43 1032.3
20260901211511 66 340 9.0 14.0 0.00 0.05 0.05 43 1032.3
20260901211008 66 317 9.0 13.0 0.00 0.05 0.05 44 1032.0
20260901210503 66 3 9.0 13.0 0.00 0.05 0.05 44 1032.1
20260901205959 67 294 9.0 13.0 0.00 0.05 0.05 43 1032.0
20260901205454 65 327 7.0 13.0 0.00 0.05 0.05 44 1032.4
20260901204948 64 303 5.0 9.0 0.00 0.05 0.05 49 1032.3
20260901204446 65 346 5.0 6.0 0.00 0.05 0.05 47 1032.3
20260901203944 66 330 3.0 6.0 0.00 0.05 0.05 50 1032.3
20260901203434 67 299 1.0 2.0 0.00 0.05 0.05 44 1032.1
20260901202929 67 275 3.0 6.0 0.00 0.05 0.05 38 1032.5
20260901202424 69 337 3.0 7.0 0.00 0.05 0.05 38 1032.3
20260901201920 71 340 2.0 7.0 0.00 0.05 0.05 33 1032.4
20260901201414 70 333 1.0 6.0 0.00 0.05 0.05 34 1032.5
20260901200908 69 260 4.0 6.0 0.00 0.05 0.05 34 1032.5
20260901200403 69 148 10.0 13.0 0.00 0.05 0.05 34 1032.0
20260901195902 68 49 4.0 7.0 0.00 0.05 0.05 37 1032.1
20260901195355 69 330 3.0 7.0 0.00 0.05 0.05 37 1032.5
20260901194850 69 241 4.0 8.0 0.00 0.05 0.05 35 1032.3
20260901194344 69 228 2.0 7.0 0.00 0.05 0.05 37 1032.4
20260901193842 68 112 4.0 14.0 0.00 0.05 0.05 37 1032.4
20260901193340 70 224 5.0 9.0 0.00 0.05 0.05 35 1032.7
20260901192835 68 351 3.0 8.0 0.00 0.05 0.05 38 1032.5
20260901192330 67 323 3.0 6.0 0.00 0.05 0.05 41 1032.1
20260901191826 67 330 9.0 10.0 0.00 0.05 0.05 37 1032.4
20260901191321 68 16 4.0 8.0 0.00 0.05 0.05 39 1032.3
20260901190817 68 287 2.0 11.0 0.00 0.05 0.05 38 1032.4
20260901190311 67 311 5.0 8.0 0.00 0.05 0.05 42 1032.7
20260901185810 68 320 9.0 14.0 0.00 0.05 0.05 41 1032.8
20260901185309 69 246 3.0 10.0 0.00 0.05 0.05 38 1032.8
20260901184805 67 301 7.0 10.0 0.00 0.05 0.05 39 1032.5
20260901184300 71 302 4.0 6.0 0.00 0.05 0.05 38 1032.7
20260901183755 68 259 0.0 6.0 0.00 0.05 0.05 36 1032.8
20260901183255 68 233 4.0 6.0 0.00 0.05 0.05 36 1032.8
20260901182751 68 338 8.0 11.0 0.00 0.05 0.05 40 1033.1
20260901182250 67 257 5.0 7.0 0.00 0.05 0.05 40 1032.8
20260901181745 67 234 9.0 10.0 0.00 0.05 0.05 38 1032.5
20260901181240 66 260 2.0 3.0 0.00 0.05 0.05 39 1033.1
20260901180739 67 281 0.0 7.0 0.00 0.05 0.05 38 1032.9
20260901180238 66 266 0.0 3.0 0.00 0.05 0.05 39 1032.9
20260901175737 67 183 2.0 9.0 0.00 0.05 0.05 41 1032.9
20260901175233 64 321 2.0 4.0 0.00 0.05 0.05 42 1033.1
20260901174727 66 244 3.0 4.0 0.00 0.05 0.05 42 1033.2
20260901174224 65 250 3.0 4.0 0.00 0.05 0.05 43 1033.2
20260901173719 64 284 3.0 4.0 0.00 0.05 0.05 43 1033.3
20260901173213 65 341 3.0 4.0 0.00 0.05 0.05 46 1033.2
20260901172710 67 302 2.0 3.0 0.00 0.05 0.05 42 1033.2
20260901172208 64 287 1.0 10.0 0.00 0.05 0.05 45 1033.1
20260901171707 64 298 3.0 8.0 0.00 0.05 0.05 44 1033.2
20260901171201 64 273 5.0 13.0 0.00 0.05 0.05 44 1033.5
20260901170700 64 254 0.0 3.0 0.00 0.05 0.05 43 1033.5
20260901170155 63 356 3.0 6.0 0.00 0.05 0.05 46 1032.9
20260901165654 63 343 3.0 6.0 0.00 0.05 0.05 49 1033.5
20260901165149 62 50 1.0 6.0 0.00 0.05 0.05 48 1033.2
20260901164645 63 350 4.0 9.0 0.00 0.05 0.05 48 1033.3
20260901164140 64 254 0.0 2.0 0.00 0.05 0.05 44 1033.2
20260901163635 64 270 2.0 4.0 0.00 0.05 0.05 47 1033.2
20260901163134 63 253 2.0 2.0 0.00 0.05 0.05 44 1033.1
20260901162630 63 224 2.0 3.0 0.00 0.05 0.05 48 1032.9
20260901162124 63 243 0.0 2.0 0.00 0.05 0.05 46 1033.2
20260901161623 62 212 2.0 4.0 0.00 0.05 0.05 46 1032.9
20260901161122 63 90 3.0 3.0 0.00 0.05 0.05 47 1033.1
20260901160619 64 263 0.0 0.0 0.00 0.05 0.05 48 1032.8
20260901160114 62 284 3.0 3.0 0.00 0.05 0.05 51 1033.2
20260901155613 62 292 4.0 4.0 0.00 0.05 0.05 51 1033.2
20260901155109 61 271 2.0 2.0 0.00 0.05 0.05 54 1033.1
20260901154608 60 279 1.0 1.0 0.00 0.05 0.05 59 1033.1
20260901154103 60 281 2.0 4.0 0.00 0.05 0.05 57 1032.9
20260901153558 61 257 1.0 3.0 0.00 0.05 0.05 57 1033.2
20260901153057 59 251 0.0 3.0 0.00 0.05 0.05 56 1033.3
20260901152553 58 242 2.0 2.0 0.00 0.05 0.05 57 1033.3
20260901152051 57 255 0.0 1.0 0.00 0.05 0.05 64 1033.1
20260901151547 55 252 0.0 0.0 0.00 0.05 0.05 76 1033.1
20260901151046 54 256 0.0 0.0 0.00 0.05 0.05 84 1032.9
20260901150544 53 240 1.0 1.0 0.00 0.05 0.05 84 1033.3
20260901150038 53 234 2.0 2.0 0.00 0.05 0.05 86 1033.2
20260901145536 53 227 2.0 2.0 0.00 0.05 0.05 84 1032.8
20260901145030 52 228 2.0 2.0 0.00 0.05 0.05 84 1033.2
20260901144526 52 221 2.0 3.0 0.00 0.05 0.05 86 1032.8
20260901144021 51 206 2.0 3.0 0.00 0.05 0.05 89 1033.1
20260901143516 51 223 2.0 2.0 0.00 0.05 0.05 88 1033.1
20260901143014 51 228 2.0 2.0 0.00 0.05 0.05 87 1032.9
20260901142508 52 235 1.0 2.0 0.00 0.05 0.05 84 1033.2
20260901142003 51 213 2.0 3.0 0.00 0.05 0.05 74 1032.9
20260901141502 52 219 1.0 3.0 0.00 0.05 0.05 75 1033.1
20260901140958 52 200 3.0 3.0 0.00 0.05 0.05 77 1033.1
20260901140456 52 240 2.0 3.0 0.00 0.05 0.05 75 1033.1
20260901135950 52 224 2.0 3.0 0.00 0.05 0.05 76 1033.1
20260901135449 50 265 2.0 3.0 0.00 0.05 0.05 86 1033.1
20260901134946 51 219 2.0 3.0 0.00 0.05 0.05 84 1032.8
20260901134441 51 216 3.0 3.0 0.00 0.05 0.05 79 1032.8
20260901133936 50 213 3.0 3.0 0.00 0.05 0.05 83 1032.8
20260901133435 50 212 3.0 4.0 0.00 0.05 0.05 82 1032.7
20260901132934 51 219 3.0 3.0 0.00 0.05 0.05 78 1032.4
20260901132429 50 213 3.0 4.0 0.00 0.05 0.05 81 1032.7
20260901131928 50 215 3.0 4.0 0.00 0.05 0.05 85 1032.4
20260901131427 48 208 3.0 6.0 0.00 0.05 0.05 91 1032.1
20260901130923 48 198 3.0 3.0 0.00 0.05 0.05 93 1032.1
20260901130423 47 190 4.0 4.0 0.00 0.05 0.05 91 1032.0
20260901125920 48 206 3.0 4.0 0.00 0.05 0.05 94 1032.1
20260901125415 47 197 4.0 4.0 0.00 0.05 0.05 94 1031.8
20260901124914 47 201 4.0 4.0 0.00 0.05 0.05 95 1031.8
20260901124410 47 201 4.0 4.0 0.00 0.05 0.05 95 1031.8
20260901123905 47 202 3.0 4.0 0.00 0.05 0.05 96 1031.8
20260901123400 46 199 4.0 4.0 0.00 0.05 0.05 98 1031.5
20260901122858 47 206 3.0 3.0 0.00 0.05 0.05 98 1031.5
20260901122353 47 206 3.0 3.0 0.00 0.05 0.05 98 1031.5
20260901121852 47 204 3.0 3.0 0.00 0.05 0.05 98 1031.4
20260901121347 47 212 3.0 3.0 0.00 0.05 0.05 98 1031.4
20260901120842 47 216 2.0 3.0 0.00 0.05 0.05 98 1031.4
20260901120336 47 219 2.0 3.0 0.00 0.05 0.05 98 1031.2
20260901115832 47 211 2.0 3.0 0.00 0.05 0.05 98 1031.2
20260901115327 47 204 3.0 3.0 0.00 0.05 0.05 98 1031.4
20260901114825 47 200 3.0 3.0 0.00 0.05 0.05 97 1031.5
20260901114320 47 206 3.0 3.0 0.00 0.05 0.05 97 1031.5
20260901113818 47 207 3.0 3.0 0.00 0.05 0.05 97 1031.4
20260901113313 47 222 2.0 2.0 0.00 0.05 0.05 97 1031.6
20260901112808 48 224 2.0 2.0 0.00 0.05 0.05 96 1031.2
20260901112307 49 232 2.0 3.0 0.00 0.05 0.05 93 1031.4
20260901111802 49 224 5.0 6.0 0.00 0.05 0.05 90 1031.1
20260901111301 48 232 2.0 3.0 0.00 0.05 0.05 92 1031.0
20260901110800 50 207 3.0 4.0 0.00 0.05 0.05 90 1031.1
20260901110255 50 187 5.0 6.0 0.00 0.05 0.05 87 1031.2
20260901105752 50 223 2.0 6.0 0.00 0.05 0.05 88 1030.8
20260901105252 50 232 3.0 4.0 0.00 0.05 0.05 88 1031.4
20260901104747 50 210 5.0 6.0 0.00 0.05 0.05 89 1031.4
20260901104243 49 189 4.0 6.0 0.00 0.05 0.05 94 1031.5
20260901103743 48 213 2.0 6.0 0.00 0.05 0.05 94 1031.4
20260901103237 49 197 4.0 4.0 0.00 0.05 0.05 94 1031.5
20260901102732 48 217 4.0 6.0 0.00 0.05 0.05 95 1031.5
20260901102232 48 231 2.0 3.0 0.00 0.05 0.05 97 1031.5
20260901101729 48 226 2.0 3.0 0.00 0.05 0.05 96 1031.2
20260901101229 48 232 3.0 3.0 0.00 0.05 0.05 96 1031.5
20260901100728 49 207 3.0 3.0 0.00 0.05 0.05 95 1031.5
20260901100223 50 254 0.0 0.0 0.00 0.05 0.05 93 1031.5
20260901095721 50 221 2.0 4.0 0.00 0.05 0.05 89 1031.4
20260901095219 51 191 3.0 6.0 0.00 0.05 0.05 89 1031.9
20260901094719 50 177 3.0 7.0 0.00 0.05 0.05 90 1032.0
20260901094214 51 167 4.0 6.0 0.00 0.05 0.05 85 1032.0
20260901093709 51 224 4.0 8.0 0.00 0.05 0.05 87 1031.6
20260901093208 51 251 2.0 8.0 0.00 0.05 0.05 87 1031.8
20260901092704 51 185 4.0 7.0 0.00 0.05 0.05 87 1031.8
20260901092200 51 204 8.0 11.0 0.00 0.05 0.05 87 1031.8
20260901091650 51 220 4.0 6.0 0.00 0.05 0.05 88 1031.9
20260901091149 50 180 4.0 7.0 0.00 0.05 0.05 89 1032.0
20260901090644 51 205 2.0 4.0 0.00 0.05 0.05 89 1032.0
20260901090140 50 224 3.0 7.0 0.00 0.05 0.05 91 1032.1
20260901085636 49 242 2.0 2.0 0.00 0.05 0.05 94 1032.0
20260901085132 48 218 4.0 6.0 0.00 0.05 0.05 97 1032.1
20260901084628 48 233 2.0 4.0 0.00 0.05 0.05 98 1032.4
20260901084124 48 232 3.0 3.0 0.00 0.05 0.05 98 1032.3
20260901083624 48 240 1.0 2.0 0.00 0.05 0.05 98 1032.1
20260901083122 48 247 1.0 3.0 0.00 0.05 0.05 98 1032.3
20260901082617 48 222 2.0 2.0 0.00 0.05 0.05 98 1032.3
20260901082113 48 224 2.0 2.0 0.00 0.05 0.05 98 1032.1
20260901081608 48 237 1.0 2.0 0.00 0.05 0.05 98 1032.3
20260901081108 48 244 1.0 2.0 0.00 0.05 0.05 98 1032.3
20260901080602 48 232 2.0 3.0 0.00 0.05 0.05 98 1032.4
20260901080101 48 225 2.0 2.0 0.00 0.05 0.05 98 1032.3
20260901075556 48 238 1.0 2.0 0.00 0.05 0.05 98 1032.4
20260901075055 48 218 0.0 0.0 0.00 0.05 0.05 99 1032.5
20260901074549 48 242 0.0 0.0 0.00 0.05 0.05 99 1032.5
20260901074045 48 241 1.0 1.0 0.00 0.05 0.05 98 1032.7
20260901073541 48 242 1.0 2.0 0.05 0.05 0.05 98 1032.7
20260901073036 49 254 0.0 0.0 0.05 0.05 0.05 97 1032.9
20260901072531 49 253 1.0 2.0 0.00 0.04 0.04 97 1032.7
20260901072026 49 252 0.0 0.0 0.00 0.04 0.04 97 1032.8
20260901071525 48 262 1.0 3.0 0.00 0.04 0.04 96 1032.9
20260901071024 49 247 1.0 2.0 0.00 0.04 0.04 96 1032.8
20260901070519 49 233 2.0 3.0 0.00 0.04 0.04 96 1032.7
20260901070015 49 232 2.0 4.0 0.00 0.04 0.04 96 1032.7
20260901065509 49 250 1.0 2.0 0.00 0.04 0.04 96 1032.5
20260901064958 49 241 2.0 4.0 0.00 0.04 0.04 95 1032.7
20260901064455 49 244 2.0 7.0 0.07 0.04 0.04 95 1032.7
20260901063952 49 241 5.0 8.0 0.19 0.04 0.04 96 1032.9
20260901063448 49 204 3.0 4.0 0.19 0.03 0.03 97 1033.2
20260901062943 48 246 2.0 3.0 0.07 0.01 0.01 98 1033.5
20260901062438 49 238 1.0 2.0 0.00 0.00 0.00 98 1032.9
20260901061929 49 245 1.0 2.0 0.00 0.00 0.00 98 1032.9
20260901061424 49 237 1.0 2.0 0.00 0.00 0.00 98 1033.1
20260901060914 49 234 2.0 2.0 0.00 0.00 0.00 98 1032.9
20260901060409 49 237 1.0 2.0 0.00 0.00 0.00 98 1032.7
20260901055908 49 246 1.0 1.0 0.00 0.12 0.12 98 1033.1
20260901055405 49 231 2.0 2.0 0.00 0.12 0.12 98 1033.1
20260901054901 49 219 2.0 2.0 0.05 0.12 0.12 97 1033.1
20260901054358 49 238 2.0 3.0 0.05 0.12 0.12 97 1033.1
20260901053853 49 229 4.0 6.0 0.00 0.11 0.11 98 1033.9
20260901053349 49 224 2.0 3.0 0.00 0.11 0.11 99 1033.5
20260901052844 49 228 2.0 3.0 0.00 0.11 0.11 99 1033.1